Tracking 18794 objects as of 21-September-2017
HD Live streaming from Space Station
objects crossing your sky now

COSMOS 1974

Track COSMOS 1974 now!
COSMOS 1974 is classified as:


NORAD ID: 19554
Int'l Code: 1988-092A
Perigee: 5,822.9 km
Apogee: 34,571.1 km
Inclination: 69.8 °
Period: 718.3 minutes
Semi major axis: 26568 km
RCS: 16.1296 m2 (large)
Launch date: October 3, 1988
Source: Commonwealth of Independent States (former USSR) (CIS)
Launch site: PLESETSK MISSILE AND SPACE COMPLEX (PKMTR)
aabbcc
Your satellite tracking list
Your tracking list is empty





NASA's NSSDC Master Catalog

Two Line Element Set (TLE):
1 19554U 88092A   17263.71216977 -.00000642 +00000-0 +00000-0 0  9993
2 19554 069.7820 312.1088 5410309 146.5080 110.1362 02.00476949212120
Source of the keplerian elements: AFSPC